Wind_Speed
32 34 36 39 42 46 49 52 54 55 57 59 61 62 63 63 65 69 70 70 71 69 68 68 66 70 74 75 78 79 78 78 78 78 78 78 78 78 79 80 80 81 82 84 85 86 88 89 91 92 95 96 98 99 100 101 102 103 103 102 102 101 102 103 104 105 106 107 108 108 109 110 111 112 112 112 112 113 115 116 118 120 122 124 125 126
36 39 43 46 49 51 54 56 58 59 60 61 63 63 65 65 66 69 71 72 74 73 70 68 66 70 74 75 78 80 79 80 80 80 79 79 79 79 79 80 81 82 82 84 85 87 88 89 91 92 94 96 97 98 99 100 101 101 102 101 101 100 101 102 103 103 104 104 105 106 106 107 108 109 110 110 110 111 111 112 113 114 115 118 120 122
44 47 49 52 54 56 57 58 60 61 62 63 64 65 66 67 66 68 71 73 76 76 73 68 66 70 74 75 78 79 80 81 80 80 79 79 79 79 80 80 81 82 83 84 85 87 88 89 90 92 93 94 95 96 97 98 98 99 99 98 98 98 99 99 100 100 99 99 100 101 101 102 104 105 106 107 108 109 109 110 109 109 110 111 114 116
50 52 54 56 57 58 59 60 61 62 65 66 66 67 68 70 70 69 70 72 75 77 76 70 65 69 75 76 77 79 79 80 80 79 79 78 79 79 80 80 80 81 82 83 84 85 87 88 89 90 91 92 94 95 95 96 96 97 97 97 97 97 97 97 97 97 96 95 95 96 97 97 98 99 100 102 104 106 106 106 106 106 106 106 108 110
54 56 57 58 58 59 60 62 63 65 67 69 70 71 71 73 74 74 73 73 74 76 79 75 66 66 75 77 78 78 78 78 79 79 79 79 80 80 80 80 80 81 82 83 84 85 87 88 88 89 90 91 93 93 94 94 95 95 95 96 96 96 96 96 95 95 95 94 94 93 93 93 94 94 95 97 99 101 102 102 102 103 103 102 102 104
56 57 58 60 61 62 63 65 67 68 70 71 73 74 75 75 76 77 77 77 76 76 80 81 72 67 73 79 80 79 78 78 78 78 78 79 79 79 80 81 81 82 83 84 85 86 87 87 88 89 90 91 91 92 92 93 93 93 93 94 94 94 94 94 94 94 94 93 92 91 90 90 90 90 91 93 95 96 98 98 98 99 99 99 98 98
58 59 61 62 64 65 67 69 70 71 72 73 75 76 77 78 78 79 80 81 80 79 82 85 81 74 75 80 81 79 78 78 77 76 76 77 77 78 79 80 81 81 82 83 84 85 86 86 87 88 88 89 89 90 90 90 91 91 91 90 90 90 91 91 91 91 91 90 89 88 87 86 86 86 87 89 91 91 92 93 94 95 94 94 94 95
61 62 63 65 67 69 70 72 73 74 76 76 77 78 79 80 80 81 83 84 84 83 84 87 86 82 80 81 81 78 78 77 76 75 75 75 76 77 77 78 79 80 81 82 83 84 84 85 86 86 87 88 88 88 88 89 89 89 88 88 88 88 88 88 88 88 87 86 85 84 84 83 82 82 82 84 86 87 88 90 91 91 90 90 90 91
63 65 66 68 70 72 74 75 77 78 79 79 80 81 82 83 83 84 85 86 86 86 87 87 87 85 81 82 83 79 78 78 76 75 74 74 75 75 76 77 78 79 80 81 82 83 84 85 85 86 86 86 86 86 86 86 86 85 85 85 85 85 85 84 84 83 82 82 82 81 79 77 76 77 77 78 80 82 84 85 86 87 86 85 85 86
67 68 70 71 73 75 77 79 80 81 82 82 82 83 84 85 86 87 87 88 88 88 89 89 89 88 83 83 84 81 79 79 77 76 75 75 75 75 76 77 77 79 80 80 81 82 83 83 83 83 83 83 83 83 83 83 83 82 82 82 81 81 81 80 78 78 77 78 79 78 75 73 71 72 74 75 77 79 81 82 82 83 83 83 82 83
70 72 73 74 75 77 79 81 82 84 85 85 86 85 85 86 87 88 89 90 90 90 91 92 91 92 88 85 83 81 79 79 78 77 76 75 75 75 76 76 77 77 78 79 80 80 80 81 81 81 81 81 80 81 81 81 80 80 79 79 78 77 77 75 74 74 74 76 76 75 73 71 70 71 72 73 75 78 80 80 80 81 82 82 82 81
73 73 74 76 77 78 79 82 84 86 88 89 90 90 88 87 88 89 90 91 92 93 94 94 93 93 92 88 84 81 79 78 77 77 76 75 75 74 74 74 75 75 75 76 77 77 78 78 79 80 80 79 79 79 79 79 77 76 76 75 74 73 72 71 70 70 71 72 73 72 70 69 69 70 70 71 73 75 77 78 78 79 79 80 80 80
73 74 75 76 78 79 80 82 85 88 91 92 94 95 95 93 92 93 93 92 93 95 97 97 95 94 93 91 87 84 81 79 78 77 76 75 74 74 74 73 73 74 73 74 74 75 75 76 77 78 78 78 77 77 77 75 74 73 72 72 71 69 69 68 68 68 68 69 70 70 69 67 67 67 67 67 68 70 73 74 76 76 75 75 77 77
73 75 76 78 80 83 84 85 87 89 93 95 97 99 101 102 101 101 101 98 95 96 99 100 99 96 93 90 88 85 83 81 79 78 77 76 76 75 74 73 73 73 74 74 74 74 74 75 76 76 76 75 75 74 73 73 72 72 72 72 71 69 69 69 68 67 67 67 69 70 67 65 65 63 63 63 64 65 68 70 72 72 72 72 73 74
76 77 79 81 83 86 88 90 91 93 96 98 101 103 105 108 108 108 108 106 102 100 101 102 102 99 94 90 88 85 83 81 79 79 78 77 76 75 74 74 74 74 74 75 75 74 74 74 74 74 73 72 72 71 70 71 71 72 72 72 72 71 70 69 67 66 66 67 68 67 64 62 60 59 59 60 60 62 64 66 67 68 68 68 69 70
79 81 82 85 87 89 91 93 94 97 99 101 103 106 108 110 112 111 111 110 107 104 104 104 103 100 96 92 89 86 84 81 80 79 78 78 77 76 75 74 74 73 73 73 73 73 73 73 73 73 72 72 71 71 71 72 73 73 73 73 71 70 67 65 64 63 64 65 65 63 60 58 56 56 56 57 58 59 60 62 63 63 64 64 65 66
80 83 85 87 89 91 93 96 98 100 102 105 107 109 110 112 114 114 112 111 109 105 105 107 105 101 98 94 91 88 85 82 81 80 79 79 78 76 75 74 73 72 72 73 73 72 72 72 72 72 72 72 72 73 74 75 75 74 73 71 68 66 63 61 61 61 62 61 60 59 56 53 53 53 54 54 55 56 57 58 59 59 59 60 60 61
80 84 87 89 91 93 95 97 100 103 105 108 109 111 112 113 115 117 118 116 114 109 106 109 110 105 102 99 94 90 88 86 85 84 82 81 80 78 77 75 74 74 74 75 75 75 74 73 72 72 72 72 73 75 76 75 74 71 69 67 64 61 58 58 59 59 58 56 55 55 53 50 49 50 51 51 52 53 54 55 56 56 56 56 56 57
80 84 89 91 93 95 96 98 101 104 107 109 112 114 115 117 117 119 123 123 121 116 111 111 113 109 104 102 98 95 93 90 88 87 85 83 82 80 78 76 75 74 74 75 75 76 75 73 72 72 72 73 73 74 74 73 70 67 64 62 60 57 56 56 56 55 54 52 51 50 49 47 46 47 48 48 49 50 51 52 53 53 53 53 53 53
81 85 90 93 95 96 97 99 102 105 107 110 113 115 117 119 120 121 123 126 126 122 117 114 115 113 108 105 102 98 96 93 90 88 86 84 82 80 78 77 75 74 73 72 72 72 71 71 71 71 72 73 73 72 70 68 65 62 59 57 56 55 55 54 52 50 49 48 47 46 45 44 43 43 44 45 46 47 48 49 49 50 50 50 50 50
83 86 90 94 96 96 98 101 104 107 109 111 113 116 119 121 122 121 122 125 127 125 123 120 119 117 113 108 104 100 98 96 93 90 87 85 83 81 79 78 77 75 73 72 70 69 69 69 70 72 73 74 72 69 66 63 59 56 54 53 52 52 52 51 49 46 44 44 43 42 41 41 41 41 41 42 43 44 45 45 46 47 48 47 47 47
84 87 90 94 97 98 101 104 106 108 111 113 115 118 121 123 125 125 124 125 127 127 125 124 123 120 115 111 106 102 100 98 95 92 89 87 86 83 82 81 80 78 76 74 71 69 68 68 69 71 72 71 69 65 61 58 55 52 50 49 49 48 47 46 44 42 40 39 38 38 38 38 38 38 38 39 40 41 42 43 44 44 45 45 44 44
85 87 90 95 98 100 102 104 106 108 111 114 116 119 122 124 126 128 128 127 129 130 127 124 124 122 117 112 107 103 101 100 98 96 93 90 88 86 84 82 81 79 77 74 70 68 67 68 70 71 70 68 65 62 58 54 51 48 47 47 46 44 43 41 39 38 37 35 35 35 36 36 36 35 35 36 37 38 40 40 41 42 42 42 42 43
87 88 90 93 96 98 101 103 105 108 111 114 117 120 122 125 126 128 129 129 130 132 130 125 123 122 118 114 109 105 103 102 100 98 96 92 88 85 83 81 79 77 75 73 70 68 68 69 70 70 69 67 64 60 55 52 49 47 46 45 43 41 40 38 36 35 33 33 33 33 33 33 33 32 33 33 35 36 37 38 39 39 39 40 41 41
89 92 94 96 98 99 102 104 107 109 112 115 118 121 123 125 127 128 129 128 128 131 132 128 123 121 119 115 111 107 103 101 98 96 94 91 88 84 82 80 78 76 75 73 70 68 69 70 70 69 67 65 62 59 54 51 48 46 44 42 40 38 37 35 34 33 31 31 31 31 31 31 30 30 31 32 33 34 35 36 37 38 38 38 39 40
89 93 97 100 104 106 109 112 113 113 114 115 117 121 124 126 128 129 130 130 128 128 131 131 125 121 119 116 111 107 102 99 95 92 90 88 86 84 83 81 80 78 76 73 71 70 70 70 70 68 65 63 61 57 53 50 47 45 43 40 38 36 35 33 32 31 30 30 30 29 29 29 29 28 29 30 31 32 33 34 35 36 37 37 38 39
87 92 97 101 105 108 111 114 116 116 116 116 117 120 123 127 129 131 131 132 130 128 128 130 128 123 120 117 112 107 103 99 95 91 89 87 86 85 84 84 83 81 77 75 73 72 71 70 68 66 63 61 58 56 52 48 45 43 42 40 37 35 34 33 32 30 29 28 28 27 27 27 27 27 27 28 30 31 32 33 34 35 36 36 37 38
86 90 94 99 103 106 109 112 115 116 117 117 118 120 123 127 128 130 131 132 133 132 131 132 131 127 123 120 116 110 106 101 98 95 93 92 91 90 88 85 83 80 77 73 72 72 71 69 66 63 60 58 56 53 50 47 44 41 40 39 37 36 34 33 32 30 28 27 26 26 26 25 25 25 26 27 28 30 31 32 33 34 35 36 36 37
86 89 92 97 101 103 106 110 113 115 116 118 119 121 124 126 128 129 131 132 134 137 137 136 135 132 128 124 120 114 109 105 103 100 97 95 93 90 87 84 80 77 74 71 70 70 69 67 65 62 58 55 53 51 48 46 43 41 39 38 37 36 35 34 33 30 28 27 26 25 25 24 24 24 24 25 26 28 30 32 33 34 35 35 35 36
86 89 92 95 99 101 104 108 112 114 116 117 118 121 123 126 128 129 131 133 134 137 139 139 138 135 131 127 122 117 113 109 106 102 97 94 91 88 85 82 79 75 72 70 69 69 68 66 64 61 57 54 51 48 47 46 44 41 39 38 37 36 35 34 33 30 28 27 26 25 24 23 23 23 22 23 24 26 28 30 32 33 34 34 34 34
86 89 92 95 98 99 101 106 110 114 116 116 117 119 121 124 128 130 133 135 136 137 138 139 138 136 132 129 125 121 116 110 106 101 96 93 91 88 85 83 80 76 72 71 70 68 67 65 63 61 58 54 51 48 47 45 44 42 40 39 38 36 35 33 32 30 28 27 26 25 24 23 22 22 22 22 23 25 26 28 30 32 33 33 33 33
87 90 93 95 97 99 101 105 109 112 115 115 115 118 121 125 130 133 136 138 139 139 139 140 140 138 134 130 127 122 117 112 108 103 99 95 93 91 88 84 81 77 74 72 71 70 67 65 63 60 58 54 51 49 47 46 44 41 39 38 37 35 34 33 31 30 28 27 25 24 23 23 22 21 21 21 22 23 25 27 28 30 31 32 32 32
87 90 94 96 98 99 101 105 109 112 114 116 117 121 124 128 132 136 138 139 140 141 142 142 142 141 137 133 129 124 120 117 113 108 104 101 98 94 90 86 82 78 76 74 73 71 68 65 62 59 57 55 52 49 48 45 43 41 38 37 36 34 33 32 31 30 28 27 25 24 23 23 22 21 21 21 21 22 24 25 26 28 29 30 31 31
88 91 95 98 100 101 102 105 109 113 117 120 123 125 129 131 133 136 138 139 139 141 144 145 145 144 141 137 132 128 123 120 116 113 109 106 103 98 92 87 83 79 76 74 73 71 68 65 62 60 58 56 53 50 48 44 42 40 38 36 34 33 33 32 31 30 29 27 26 25 24 23 22 22 20 20 21 22 22 23 24 26 28 28 29 30
88 91 95 98 102 104 105 107 111 115 120 123 124 126 129 131 133 135 138 140 142 144 146 147 147 146 144 139 134 129 124 120 117 114 110 107 105 100 94 88 84 80 78 76 74 72 69 66 62 60 58 56 54 51 48 44 41 39 37 35 33 32 32 31 30 29 29 28 27 26 25 23 22 22 20 19 19 20 21 20 22 24 26 27 27 28
89 92 95 99 102 104 106 109 113 116 120 121 122 125 128 132 135 139 142 144 147 149 149 149 148 147 144 140 135 129 124 120 116 113 110 106 104 100 96 91 87 83 81 79 77 74 71 67 63 60 58 56 54 51 48 44 41 39 36 34 33 32 31 30 29 29 29 28 28 27 26 24 22 21 20 19 18 18 18 18 21 23 24 25 25 25
91 94 96 99 103 106 107 109 111 114 118 121 124 126 130 134 137 142 146 149 150 151 150 149 149 148 146 143 138 131 125 120 116 112 108 106 103 101 98 95 91 87 83 81 79 77 73 70 66 62 59 57 54 51 48 45 42 39 37 35 33 31 30 29 28 28 28 28 28 27 26 24 23 22 21 19 17 16 16 17 19 21 21 22 22 23
92 95 98 100 103 107 110 112 113 115 119 124 128 130 132 134 136 139 144 148 149 149 149 150 151 150 149 147 143 136 128 121 117 113 109 107 105 102 99 97 94 90 86 83 80 78 75 71 67 63 60 57 54 51 48 45 42 40 37 36 34 32 30 29 28 27 26 26 26 26 25 24 23 21 20 19 17 15 15 16 16 17 18 19 20 21
93 96 99 101 104 107 111 115 118 120 122 125 129 132 133 134 136 137 139 142 146 149 151 153 154 154 152 150 148 143 135 127 122 118 115 112 110 107 102 99 96 92 88 84 81 78 75 72 68 64 60 57 54 51 48 45 43 40 38 36 34 32 31 29 28 26 25 24 24 24 23 22 21 20 19 18 16 15 14 14 13 14 15 17 18 18
93 95 98 101 104 107 111 115 119 121 124 126 130 133 134 134 135 137 138 141 146 151 154 156 156 156 155 153 151 148 143 136 129 125 120 116 113 110 105 101 97 92 88 85 82 79 76 73 69 65 62 59 55 52 48 46 43 41 39 37 35 33 31 30 28 26 25 23 22 21 21 20 19 18 17 16 15 14 13 12 12 12 14 15 15 15
92 95 97 101 104 107 110 113 117 120 123 126 130 134 135 133 133 136 140 144 147 152 155 157 157 157 156 155 153 151 147 140 133 128 123 118 114 110 106 102 99 95 90 86 83 80 77 73 70 66 62 59 56 52 49 46 43 41 39 37 35 33 31 30 28 27 25 23 21 20 18 18 17 16 15 14 13 12 12 11 11 11 11 11 12 13
92 95 98 101 104 107 110 112 115 119 122 125 129 133 136 137 136 138 142 145 147 150 154 157 158 158 157 156 154 152 148 141 134 128 123 119 115 111 108 104 100 96 92 88 84 81 78 74 70 66 62 59 56 53 50 47 44 42 39 38 36 34 32 30 28 27 25 22 20 18 17 16 16 15 13 12 11 10 10 10 10 9 9 9 9 10
94 96 99 102 106 109 111 114 117 120 123 125 128 133 138 142 143 142 142 143 145 148 152 156 158 159 158 156 154 152 148 142 135 129 124 119 116 113 109 105 101 97 93 88 84 81 78 75 71 67 63 60 57 53 50 47 45 43 40 38 36 34 33 30 28 26 24 22 20 18 16 15 14 13 12 12 11 9 8 8 8 8 7 7 7 7
96 98 101 104 108 111 114 117 120 123 125 127 130 133 138 143 146 145 143 143 144 147 151 155 158 159 158 157 155 153 150 145 138 131 125 121 117 114 110 106 102 98 94 90 85 82 79 76 72 68 64 61 57 54 51 48 46 43 41 39 37 35 33 30 28 25 23 21 20 19 18 16 14 14 14 13 12 10 9 8 7 7 6 6 5 6
97 99 102 105 109 112 115 118 121 124 126 128 130 133 136 140 144 146 146 144 144 146 149 153 157 159 159 158 156 154 151 147 141 134 128 123 119 115 111 108 104 100 96 92 87 83 80 77 73 69 65 61 58 55 52 49 47 44 42 40 37 35 33 30 27 24 22 21 21 20 19 18 16 16 16 15 13 12 10 8 7 6 5 5 5 5
97 99 102 104 107 110 113 116 119 122 125 127 129 131 133 137 141 145 147 146 144 145 147 151 155 159 160 159 157 155 152 149 144 137 130 125 120 116 112 109 106 101 98 94 89 85 81 78 75 71 67 63 59 56 53 50 48 45 43 41 38 36 33 30 27 24 23 22 21 20 20 18 17 17 16 15 13 11 9 7 6 5 4 4 4 4
95 98 101 104 106 108 110 113 117 120 122 125 127 129 131 134 138 143 146 146 145 145 146 149 153 157 159 159 158 156 154 151 146 140 133 126 121 117 114 111 108 103 99 96 92 87 83 80 77 73 69 65 62 58 55 52 49 47 44 42 39 36 33 30 27 25 24 23 22 20 20 19 18 17 16 14 12 10 8 7 6 5 4 3 3 3
94 97 100 103 105 107 109 112 115 118 121 124 126 128 129 131 135 140 144 145 144 144 145 147 151 155 157 158 158 157 155 152 149 143 136 129 123 120 116 112 109 105 101 97 94 90 85 81 78 75 71 68 64 60 57 54 51 49 46 43 39 36 33 31 28 26 25 24 22 21 20 19 18 18 16 14 12 10 8 7 6 5 3 2 2 2
94 96 99 102 104 106 108 111 113 116 119 122 125 127 128 129 133 137 142 143 143 141 141 144 148 152 155 157 157 157 155 154 151 146 140 132 126 122 118 114 110 107 103 99 96 93 89 84 80 77 73 69 65 62 59 56 53 50 47 44 40 37 34 31 29 27 26 25 24 22 21 20 19 18 16 14 11 9 8 7 6 5 4 3 2 2
93 95 98 100 102 105 108 110 113 116 118 121 124 127 128 130 132 136 140 142 142 140 140 141 145 149 153 156 157 157 156 154 152 148 143 137 130 124 120 116 113 109 105 101 97 94 91 87 82 78 75 71 67 63 60 57 54 51 48 45 41 38 35 33 30 29 27 26 25 23 22 21 20 18 15 13 11 10 9 9 8 7 5 4 4 4
93 95 98 100 103 106 109 111 114 117 119 122 124 127 129 130 132 135 138 141 141 141 140 140 143 147 151 155 156 157 156 155 153 150 146 141 135 128 123 119 115 112 108 104 99 96 93 90 85 81 77 73 68 64 61 57 54 51 49 45 43 40 37 34 32 30 28 26 25 23 22 21 20 18 15 14 12 11 10 9 7 7 6 5 5 6
Wind_Direction
335 339 342 346 349 351 352 352 351 351 351 350 348 346 345 345 342 339 338 336 334 334 334 335 336 327 320 318 314 313 314 312 309 308 307 305 303 301 299 297 295 294 292 290 289 287 286 284 284 283 282 282 281 281 280 280 279 279 278 278 277 276 275 273 272 271 269 268 268 267 267 266 266 266 265 265 264 262 261 260 259 258 258 258 257 257
350 353 354 356 357 357 356 355 353 352 352 351 349 348 346 346 345 341 339 338 334 334 336 337 337 329 321 317 314 314 314 312 311 311 309 307 305 303 301 298 296 294 293 291 289 288 287 286 285 284 283 282 282 282 281 280 280 279 279 278 277 276 275 273 272 271 269 269 268 267 267 266 266 266 266 265 265 264 263 262 261 259 258 257 256 256
0 0 360 360 359 359 358 356 355 353 352 352 351 349 347 346 347 344 341 339 336 334 335 338 339 330 321 317 316 315 315 314 313 312 310 308 306 304 301 299 297 295 294 292 290 289 288 287 286 285 284 284 283 282 281 281 281 280 280 279 278 277 276 274 273 272 271 270 269 268 267 266 265 265 265 265 265 264 263 263 262 260 259 258 257 256
4 3 2 1 0 359 358 357 356 354 353 353 352 351 349 347 347 346 343 341 338 335 334 338 341 332 322 319 318 317 317 316 315 312 311 309 306 304 302 300 298 296 294 292 291 290 289 288 288 287 287 286 285 284 284 283 283 283 282 281 280 279 278 277 276 275 274 273 271 269 268 267 266 265 264 264 264 263 263 262 262 261 260 258 257 256
5 4 2 1 1 360 359 358 357 357 355 354 354 352 351 349 348 346 344 343 340 336 334 337 342 334 324 320 319 320 320 319 316 315 313 310 307 305 304 302 300 298 297 296 295 294 293 292 291 290 289 288 287 287 286 285 285 284 283 282 281 280 280 279 279 277 276 274 273 271 270 269 268 266 265 264 264 263 263 263 262 261 260 259 257 256
5 4 3 1 1 1 0 359 359 359 358 356 355 354 352 351 350 347 345 344 342 339 335 336 340 336 328 323 323 324 324 321 318 316 314 311 309 308 306 304 303 302 301 300 298 297 296 294 293 292 290 289 288 287 287 286 285 284 283 282 282 281 281 280 279 278 276 275 274 273 272 271 269 268 267 266 264 263 263 263 262 261 261 260 259 257
6 5 4 2 2 2 1 0 360 360 359 358 357 355 353 352 351 348 346 345 344 341 338 337 338 337 333 327 326 327 325 322 319 317 314 312 311 309 307 306 305 304 303 301 299 298 296 295 294 292 291 290 289 288 288 287 286 285 285 284 284 283 282 281 279 279 278 277 277 276 274 273 271 270 268 267 266 265 264 263 262 262 261 260 260 258
7 6 4 4 3 2 2 1 0 360 360 359 358 357 355 354 352 350 348 347 345 342 340 339 337 337 336 330 328 329 326 323 320 318 316 314 312 310 309 308 306 305 303 302 300 299 297 296 295 294 293 292 291 291 290 289 288 288 287 286 285 284 283 282 281 280 280 280 278 277 275 273 272 270 268 266 266 265 265 264 263 263 262 261 260 258
8 6 5 4 3 2 1 1 0 360 -0 360 359 358 356 355 353 351 350 349 346 343 342 340 337 337 337 332 330 331 328 324 322 320 318 316 314 312 311 310 308 307 305 304 302 301 299 298 297 296 295 294 293 292 291 290 289 288 288 287 286 285 284 283 282 282 281 281 279 277 275 273 272 271 269 267 266 266 265 264 265 265 264 262 260 259
8 6 5 4 4 3 2 1 0 360 360 360 360 359 358 356 355 352 351 351 348 344 343 342 338 337 338 335 333 333 329 326 324 322 321 319 317 315 314 313 311 309 307 305 303 302 300 299 298 297 295 295 294 293 293 292 291 290 289 288 287 287 286 285 285 284 283 282 280 279 278 277 275 273 272 270 269 268 267 266 266 266 266 264 263 261
8 6 5 4 4 4 3 1 1 360 360 359 359 360 359 358 357 354 353 353 350 346 344 343 340 339 339 338 335 334 331 328 326 325 323 321 319 318 317 315 312 310 308 306 304 303 301 300 299 298 297 297 296 296 295 294 293 293 292 291 290 289 288 287 286 285 283 281 280 280 280 278 276 274 272 270 269 269 268 268 267 266 265 265 264 262
7 6 5 4 2 3 4 3 2 1 1 0 359 359 359 359 358 355 355 355 353 349 346 344 342 340 340 339 337 335 333 330 329 327 325 323 321 320 318 316 313 311 309 307 306 305 304 303 302 301 300 300 299 297 296 295 295 294 293 292 291 290 289 288 286 284 282 281 280 280 278 276 273 271 269 268 267 267 267 266 266 264 263 263 262 261
7 6 5 4 2 2 4 4 4 4 2 1 0 359 358 358 358 357 356 357 356 352 348 345 344 343 342 340 339 337 335 333 331 329 326 325 324 322 320 318 315 313 312 310 309 308 307 305 304 303 302 301 299 297 297 296 296 295 294 293 292 291 290 288 286 284 283 282 281 279 277 274 271 269 268 267 265 265 264 264 263 262 261 260 259 258
6 6 5 5 4 3 3 4 4 4 3 2 1 1 359 358 358 358 357 357 358 356 351 347 345 344 344 342 340 339 337 335 333 331 329 328 327 325 322 320 319 317 316 314 313 311 310 308 306 305 303 302 300 299 299 298 298 297 296 295 294 294 292 290 288 287 285 283 281 278 275 273 271 270 269 267 265 263 262 261 261 260 259 258 257 256
5 6 5 5 5 4 4 4 4 4 4 3 2 2 1 360 359 359 357 357 358 357 354 349 346 346 346 344 342 340 338 336 335 333 332 331 329 327 325 324 323 321 319 317 315 314 312 310 308 306 304 303 302 301 300 300 299 298 298 297 297 296 294 292 291 289 286 282 279 277 276 274 273 271 269 267 265 262 261 260 259 259 258 257 256 255
4 6 7 6 6 5 5 4 4 4 4 4 3 3 3 1 360 359 358 357 357 358 356 351 348 347 347 346 344 342 340 338 337 336 334 333 332 330 328 327 325 323 321 319 317 316 314 312 310 309 307 305 304 304 303 302 302 301 300 300 299 297 296 294 292 288 284 280 279 279 278 276 274 272 270 268 265 263 261 260 259 259 258 257 256 255
6 7 8 7 7 6 6 5 5 5 5 4 4 4 4 3 1 359 358 358 357 358 358 353 349 349 348 347 346 344 342 341 339 338 337 336 334 332 330 329 327 325 323 321 319 318 316 315 313 311 309 308 308 307 306 305 304 304 303 302 301 299 298 295 290 286 283 282 282 281 279 277 275 273 270 268 266 264 263 262 261 260 259 257 256 254
9 8 8 8 7 7 6 6 6 5 5 5 4 4 4 3 2 360 358 358 358 358 359 355 351 351 350 348 347 346 344 343 342 341 340 338 336 334 333 332 330 328 326 325 323 321 319 317 315 313 311 310 309 309 308 307 306 306 305 304 302 301 297 293 289 286 285 285 283 281 280 278 275 273 270 268 266 265 264 263 262 261 260 258 257 255
11 8 7 7 7 6 6 7 7 6 5 5 4 4 3 3 3 2 359 358 358 358 359 358 353 352 352 350 349 348 346 345 344 343 342 340 338 337 335 333 332 330 329 327 325 323 320 318 315 313 311 311 310 309 309 309 309 308 307 305 302 299 295 291 289 288 288 286 283 281 280 278 275 272 270 268 267 266 264 263 263 262 261 259 257 255
11 8 6 6 6 6 6 6 6 6 6 5 4 4 3 3 3 3 1 359 358 358 358 358 355 353 353 352 351 349 347 346 346 345 343 341 339 338 336 334 333 331 329 327 325 322 320 317 315 313 312 312 311 311 311 311 310 309 307 304 301 297 294 292 291 290 288 286 284 283 281 278 275 272 270 268 267 266 264 263 263 262 261 259 257 256
11 9 7 7 7 7 7 6 6 6 6 5 5 4 3 3 2 3 3 0 358 358 359 358 357 355 354 353 352 350 349 347 347 346 344 342 341 339 338 336 334 333 331 329 327 324 321 318 316 315 314 314 314 314 314 313 312 310 307 303 299 296 295 294 293 291 288 286 285 284 281 278 275 272 270 269 267 266 264 263 262 261 260 259 258 257
12 11 10 9 9 8 8 7 6 5 5 5 5 4 3 3 2 2 3 2 360 359 360 359 358 356 355 354 353 352 350 349 348 346 345 344 342 341 339 338 336 335 333 331 329 326 322 320 318 317 316 316 316 317 317 316 313 310 306 302 298 297 296 295 294 292 289 287 286 283 281 278 276 273 271 269 267 266 264 263 262 261 260 260 259 257
11 12 11 10 9 9 8 7 6 5 5 5 5 4 4 3 3 2 3 3 1 360 -0 1 359 356 355 355 354 353 351 350 349 348 346 345 344 342 341 339 337 335 333 331 330 327 324 321 320 320 319 319 320 321 320 318 314 311 307 303 301 300 298 297 295 293 291 290 287 284 282 279 277 275 272 269 267 266 265 263 262 261 261 261 259 258
9 10 10 9 9 8 7 7 6 6 5 6 6 5 4 4 3 3 3 3 2 0 360 1 0 358 356 355 355 354 353 352 351 349 347 345 344 343 341 339 338 336 334 333 331 329 327 325 324 323 323 323 324 324 323 320 316 313 309 306 305 304 302 300 297 295 294 292 289 286 283 281 278 276 273 270 267 265 265 264 263 262 261 261 260 258
8 7 7 7 7 8 7 7 7 6 6 6 6 5 4 4 3 3 3 3 3 2 360 360 1 359 357 357 356 355 354 353 351 349 347 345 344 343 342 340 339 337 336 335 333 332 330 328 327 326 326 327 327 326 325 322 319 316 312 310 309 307 304 303 300 299 298 295 292 288 285 282 280 276 273 270 267 265 264 264 264 263 262 261 260 259
7 5 5 5 5 6 7 6 6 6 6 6 6 6 5 4 4 3 3 2 3 3 1 0 1 0 359 358 357 355 354 354 352 350 348 347 346 345 343 342 341 340 339 337 335 334 333 331 330 329 330 330 329 328 327 324 321 319 317 314 313 310 308 306 303 303 301 298 294 291 288 285 282 278 274 270 268 266 264 263 263 262 262 261 260 259
7 5 4 5 5 5 6 6 5 5 5 6 6 6 5 4 4 3 3 2 2 3 3 2 1 1 360 358 357 356 355 354 353 352 350 349 348 347 346 344 343 342 341 339 337 336 335 334 332 332 333 332 331 329 328 327 325 323 321 319 317 314 312 310 308 306 304 301 297 293 289 286 283 279 275 272 269 267 265 264 262 261 261 260 259 259
8 6 4 4 4 4 4 5 5 4 4 5 5 6 6 5 4 3 2 2 2 2 4 3 2 2 1 359 358 357 355 355 354 354 353 352 351 349 348 346 345 343 341 340 339 337 337 336 335 335 335 335 333 331 331 330 329 328 325 323 321 318 316 314 312 311 308 304 300 296 292 289 284 280 276 272 270 268 267 265 263 262 261 260 259 258
9 7 5 4 4 4 3 4 5 4 4 4 5 5 6 5 4 3 2 2 3 3 4 4 4 3 2 1 359 357 356 356 356 356 355 354 352 351 349 347 345 343 342 341 341 340 339 338 337 337 338 337 336 334 333 333 332 331 329 326 323 322 320 318 316 314 312 308 304 300 297 292 287 282 278 274 271 269 267 267 266 264 263 261 259 258
9 8 7 5 4 4 3 3 5 4 4 4 5 5 6 5 4 4 3 2 3 4 4 5 4 3 2 1 360 358 358 358 357 356 356 354 353 351 350 348 347 345 344 344 343 343 342 341 340 340 340 340 338 337 337 335 334 333 331 328 326 324 322 320 318 317 315 312 309 305 300 296 291 286 281 277 273 270 268 267 267 266 265 263 261 259
9 9 8 6 5 5 4 3 4 4 4 4 5 5 5 5 4 4 4 3 4 4 5 5 5 4 3 2 1 359 358 358 357 357 356 355 354 353 352 350 349 347 347 347 346 346 345 344 343 342 342 342 341 341 340 338 336 335 333 330 328 327 324 322 321 319 318 315 311 307 303 299 294 290 285 280 275 271 268 266 266 266 266 265 263 261
8 8 8 7 6 5 4 4 4 4 3 3 4 4 5 5 5 5 5 4 4 4 5 5 5 5 4 3 3 1 359 358 358 357 356 357 357 355 354 353 351 350 350 349 349 348 348 347 346 344 344 344 344 343 342 340 338 337 335 332 330 329 327 324 323 321 319 316 312 308 304 301 297 292 288 282 277 272 268 266 265 265 266 266 266 264
7 7 8 7 6 6 5 4 4 4 4 3 4 5 5 6 6 6 5 5 5 5 5 6 6 6 5 4 3 2 360 359 358 358 357 358 358 357 356 354 354 353 352 352 351 351 350 349 348 346 346 345 346 346 344 342 340 339 337 335 333 331 329 327 324 322 319 316 313 310 306 303 299 295 290 284 278 272 268 266 264 264 264 265 266 266
6 6 6 7 6 6 6 5 4 4 4 5 5 5 5 6 7 7 6 5 5 6 6 6 6 6 6 5 5 3 2 0 359 359 358 358 358 357 357 356 355 355 355 354 354 353 352 352 350 349 348 347 348 348 346 344 343 341 340 338 336 334 331 328 325 323 320 318 315 313 310 306 304 300 294 287 280 275 271 267 264 263 263 263 263 264
5 5 5 6 6 6 6 6 5 5 5 5 5 6 6 6 7 8 7 6 6 6 7 7 7 6 6 6 6 4 3 2 1 360 359 359 358 357 357 357 357 357 357 356 356 355 354 354 353 352 351 349 349 349 348 346 346 345 343 341 339 336 333 330 327 324 322 320 318 316 314 310 307 303 298 291 283 278 275 269 264 261 261 261 261 262
4 4 4 5 6 6 6 6 6 5 5 5 5 6 7 7 7 8 8 8 7 7 7 7 7 7 7 6 6 6 4 3 2 1 360 360 359 358 358 358 359 359 358 358 358 357 356 356 355 354 353 352 351 350 350 349 348 348 346 344 341 338 335 332 329 327 324 322 320 318 316 313 310 305 300 295 288 282 277 270 263 260 260 260 261 260
4 4 4 5 6 6 6 7 7 6 5 5 5 6 7 8 9 9 9 9 9 8 7 7 7 7 7 7 6 7 6 5 4 3 1 1 1 0 360 359 360 0 360 359 359 358 358 357 357 356 355 354 353 352 352 351 351 350 349 346 344 341 338 335 332 330 327 324 322 319 316 314 310 306 302 299 294 287 277 269 265 264 263 263 262 260
4 4 4 4 5 6 5 6 7 7 7 7 6 6 6 8 9 10 10 10 9 8 7 7 7 7 7 7 6 6 6 6 5 4 3 3 3 2 2 1 1 1 1 1 0 360 359 358 358 357 357 356 355 354 353 353 352 352 350 348 346 344 342 339 336 334 330 326 322 319 316 313 310 308 305 303 300 293 283 276 272 271 267 264 260 257
4 4 4 4 5 6 6 5 5 6 7 7 7 7 6 6 7 9 10 10 9 8 8 8 8 7 7 7 7 6 6 6 6 5 4 4 4 4 3 3 3 2 1 1 1 1 0 360 359 358 358 357 356 356 355 355 354 354 352 350 349 347 345 342 340 336 332 328 323 318 314 312 310 309 307 306 304 300 293 286 278 270 264 260 258 256
3 4 4 4 5 6 6 5 5 6 6 7 7 8 7 7 6 7 8 10 10 9 9 9 8 8 7 7 7 7 6 6 6 6 5 5 5 4 4 3 3 3 3 2 2 2 2 1 0 360 359 358 358 358 357 357 356 355 354 352 351 350 348 345 342 339 335 331 325 320 316 314 314 314 313 312 309 305 300 293 282 271 265 262 259 257
3 3 4 5 5 5 6 6 5 6 7 6 7 7 8 7 7 7 7 9 10 10 10 9 9 8 8 8 8 8 7 6 6 6 6 5 5 5 5 4 4 4 4 3 3 3 3 2 2 1 360 359 359 359 359 358 358 357 356 355 353 352 351 348 345 341 338 334 330 326 323 323 323 323 322 320 317 312 306 299 290 282 274 267 261 257
4 4 4 4 5 5 6 6 6 6 7 7 7 7 7 7 8 8 8 9 10 10 10 10 9 9 8 8 8 8 8 7 7 7 6 5 5 6 6 5 5 4 4 4 4 4 4 3 3 2 1 0 360 360 0 360 359 359 359 357 355 355 354 351 347 344 340 338 335 334 334 335 334 332 331 330 329 324 316 306 298 289 281 271 263 257
3 4 4 4 4 5 5 5 6 6 7 7 7 7 7 7 8 8 8 8 9 10 10 10 10 9 9 8 9 9 8 8 7 7 7 6 6 6 6 6 5 5 5 5 5 5 5 4 4 3 2 1 1 1 2 1 1 1 0 359 358 357 356 353 349 346 343 341 342 344 346 346 344 344 345 346 345 340 333 322 309 298 289 279 267 259
3 4 4 4 4 4 5 5 6 6 6 6 6 6 7 7 7 7 8 8 9 9 10 10 10 9 9 9 9 9 9 8 8 8 7 7 7 7 7 7 6 5 5 6 6 6 6 6 5 4 4 2 2 2 3 3 3 2 2 1 0 359 357 355 352 349 348 348 350 353 354 353 354 358 358 355 352 350 345 337 324 311 300 287 273 260
3 4 4 5 5 4 4 5 5 6 6 6 6 6 6 6 6 7 7 8 8 9 10 10 10 10 9 9 9 9 9 9 8 8 8 8 7 7 7 7 7 6 6 6 7 7 7 7 6 5 5 4 3 3 4 4 4 4 4 3 2 1 359 358 356 354 354 356 358 359 358 358 360 1 359 354 351 349 346 342 334 319 303 288 275 264
4 4 4 5 5 5 5 5 5 6 6 5 5 5 5 5 5 6 6 7 8 9 10 10 10 10 9 9 9 9 9 9 9 8 8 8 8 8 8 8 7 7 6 7 7 8 8 8 7 6 6 5 4 4 4 5 6 6 5 5 3 2 2 1 1 0 1 3 3 1 359 359 0 359 355 349 346 345 343 341 335 323 309 296 284 276
4 4 4 4 5 5 5 5 5 5 5 5 5 5 5 5 5 5 6 7 8 8 9 10 10 10 10 9 9 9 9 9 9 9 8 9 8 8 8 9 8 7 7 7 7 9 9 9 8 8 7 6 5 5 5 6 6 7 6 6 5 4 4 5 5 6 6 7 5 2 360 359 358 356 352 348 346 345 345 345 343 337 330 319 307 298
4 4 4 4 4 5 5 5 4 4 5 5 5 5 5 5 5 5 6 7 7 8 9 9 10 10 10 9 9 9 9 9 9 9 9 9 9 9 9 9 9 8 8 7 7 8 9 10 9 9 8 7 6 5 6 6 7 7 7 6 6 6 7 7 8 9 8 6 5 2 360 358 357 354 349 346 346 348 351 354 355 352 350 349 343 329
3 3 4 4 4 4 4 4 4 4 4 5 5 5 5 5 5 5 6 6 7 8 9 9 9 10 10 10 9 9 9 9 9 9 9 9 9 9 9 9 9 9 8 8 8 8 9 10 10 10 9 8 7 6 6 7 7 7 7 7 7 7 9 9 10 10 8 5 4 2 360 358 357 352 346 343 346 352 359 4 6 5 6 15 25 32
2 3 3 3 2 2 3 3 4 4 4 4 4 5 5 5 5 5 6 6 7 8 9 10 10 10 10 10 10 9 9 9 9 9 9 9 9 9 10 9 9 9 9 8 8 8 9 10 10 10 10 9 8 7 6 7 7 7 7 7 7 8 9 10 11 10 8 5 3 2 0 358 355 350 347 349 354 359 5 8 8 8 10 23 44 58
1 1 1 1 1 1 2 3 3 4 4 4 4 4 5 5 5 5 6 6 6 7 8 9 10 10 10 11 10 10 9 9 10 10 10 9 9 9 10 10 9 10 10 9 8 8 8 9 10 10 10 10 9 7 7 7 8 7 7 7 8 8 9 9 10 9 8 6 4 2 1 358 354 352 354 359 2 5 7 9 11 12 19 37 57 64
Height
10614 10608 10603 10598 10592 10586 10580 10574 10567 10561 10555 10548 10542 10534 10527 10521 10512 10501 10493 10485 10478 10476 10471 10462 10455 10440 10425 10416 10404 10395 10392 10386 10378 10371 10365 10358 10351 10343 10335 10328 10321 10314 10306 10300 10294 10286 10280 10274 10269 10263 10256 10249 10242 10236 10231 10226 10220 10215 10211 10209 10208 10206 10203 10199 10195 10192 10190 10188 10187 10187 10185 10184 10182 10181 10180 10180 10180 10179 10178 10179 10179 10179 10180 10181 10184 10187
10609 10604 10599 10593 10588 10582 10576 10569 10563 10556 10551 10544 10537 10530 10522 10516 10509 10498 10487 10479 10468 10464 10463 10456 10449 10435 10417 10407 10396 10387 10381 10374 10366 10360 10352 10344 10336 10328 10321 10314 10307 10300 10293 10286 10278 10271 10265 10259 10253 10247 10241 10234 10228 10222 10216 10211 10205 10200 10196 10193 10191 10188 10184 10180 10176 10173 10172 10170 10169 10169 10168 10167 10165 10164 10163 10162 10162 10160 10159 10159 10159 10160 10162 10162 10164 10167
10605 10601 10595 10589 10584 10578 10572 10566 10559 10552 10546 10541 10533 10526 10518 10510 10506 10497 10483 10473 10461 10453 10453 10451 10444 10429 10411 10399 10389 10379 10371 10362 10355 10348 10340 10332 10323 10315 10307 10300 10293 10286 10279 10271 10264 10257 10251 10244 10238 10232 10226 10219 10213 10207 10201 10195 10190 10184 10180 10177 10173 10169 10164 10160 10157 10154 10153 10153 10152 10151 10150 10150 10149 10148 10147 10145 10144 10142 10140 10140 10140 10141 10142 10143 10144 10147
10603 10597 10592 10586 10581 10575 10570 10563 10557 10549 10541 10535 10529 10521 10513 10504 10497 10492 10483 10471 10457 10444 10441 10443 10441 10425 10404 10392 10383 10373 10365 10355 10345 10336 10328 10320 10310 10302 10294 10287 10279 10272 10264 10257 10250 10243 10236 10229 10222 10216 10209 10202 10195 10189 10184 10178 10172 10167 10163 10158 10153 10149 10144 10141 10138 10135 10134 10133 10133 10132 10131 10131 10131 10132 10131 10129 10126 10124 10121 10122 10122 10122 10123 10124 10126 10128
10600 10595 10589 10584 10579 10573 10567 10560 10554 10546 10537 10529 10521 10513 10506 10497 10487 10480 10474 10467 10457 10441 10429 10429 10433 10422 10398 10382 10376 10367 10357 10347 10335 10325 10315 10306 10296 10287 10280 10272 10264 10256 10248 10241 10234 10226 10219 10212 10205 10198 10191 10184 10178 10171 10166 10161 10155 10151 10146 10140 10135 10130 10126 10123 10120 10117 10114 10113 10113 10112 10112 10113 10113 10113 10113 10111 10109 10106 10104 10104 10105 10104 10104 10105 10108 10111
10598 10592 10587 10581 10576 10570 10563 10557 10550 10543 10535 10525 10516 10507 10499 10491 10482 10472 10463 10457 10450 10438 10423 10414 10416 10415 10395 10372 10363 10356 10347 10336 10325 10315 10305 10294 10284 10275 10265 10256 10248 10240 10232 10225 10217 10209 10202 10195 10188 10182 10174 10168 10162 10156 10150 10145 10140 10135 10129 10124 10119 10115 10111 10107 10102 10099 10096 10095 10095 10094 10094 10095 10095 10095 10095 10093 10091 10090 10088 10087 10088 10087 10087 10088 10092 10095
10596 10590 10584 10578 10572 10566 10559 10552 10546 10538 10531 10523 10514 10504 10494 10485 10477 10467 10456 10445 10437 10428 10415 10400 10394 10395 10385 10366 10353 10345 10335 10325 10315 10305 10295 10284 10274 10263 10253 10244 10236 10228 10219 10211 10203 10195 10187 10180 10172 10166 10158 10152 10146 10141 10135 10129 10124 10118 10113 10109 10104 10100 10095 10090 10086 10082 10079 10078 10078 10078 10077 10078 10078 10078 10079 10076 10072 10072 10072 10070 10070 10071 10072 10073 10075 10078
10593 10586 10581 10574 10568 10562 10555 10548 10541 10534 10527 10519 10510 10500 10491 10481 10471 10461 10450 10438 10426 10417 10407 10393 10380 10377 10371 10355 10345 10338 10325 10314 10304 10293 10284 10273 10263 10253 10243 10234 10225 10216 10208 10198 10189 10181 10172 10165 10158 10151 10143 10136 10130 10125 10120 10113 10107 10102 10098 10093 10089 10084 10079 10074 10071 10067 10065 10063 10062 10061 10061 10061 10061 10060 10061 10060 10056 10055 10055 10053 10053 10054 10056 10058 10058 10061
10590 10584 10577 10571 10564 10557 10550 10543 10536 10529 10522 10515 10507 10497 10487 10477 10466 10454 10444 10433 10419 10407 10400 10389 10373 10368 10363 10345 10332 10326 10314 10301 10292 10282 10272 10262 10251 10241 10232 10223 10213 10204 10194 10185 10176 10167 10158 10150 10142 10135 10128 10122 10116 10110 10104 10099 10093 10088 10083 10078 10073 10068 10063 10059 10056 10054 10052 10048 10045 10044 10043 10044 10045 10043 10043 10043 10041 10040 10038 10038 10039 10038 10039 10041 10042 10044
10586 10580 10573 10567 10560 10552 10545 10538 10531 10524 10517 10510 10503 10494 10483 10472 10460 10449 10439 10428 10414 10399 10389 10380 10364 10354 10352 10338 10321 10312 10301 10288 10278 10268 10259 10249 10239 10229 10219 10210 10200 10191 10181 10172 10163 10154 10146 10138 10130 10123 10116 10110 10103 10096 10090 10084 10078 10073 10068 10063 10058 10053 10048 10045 10042 10040 10037 10033 10028 10027 10026 10028 10029 10028 10027 10026 10025 10024 10022 10023 10025 10023 10023 10025 10026 10028
10582 10576 10570 10563 10557 10551 10542 10534 10527 10519 10511 10504 10497 10490 10482 10471 10459 10446 10435 10423 10410 10394 10380 10369 10354 10339 10334 10328 10316 10303 10291 10278 10267 10256 10246 10236 10226 10217 10208 10199 10189 10179 10170 10160 10152 10143 10134 10126 10117 10109 10103 10096 10089 10083 10076 10069 10063 10058 10053 10048 10044 10040 10035 10032 10030 10026 10023 10019 10015 10013 10013 10014 10014 10013 10012 10012 10011 10009 10007 10009 10011 10010 10010 10010 10011 10012
10581 10575 10569 10562 10555 10550 10542 10532 10523 10513 10504 10496 10487 10481 10476 10469 10459 10446 10434 10421 10404 10386 10370 10359 10348 10333 10320 10312 10304 10294 10282 10269 10257 10246 10235 10226 10216 10207 10198 10189 10179 10169 10159 10149 10140 10130 10121 10112 10103 10094 10088 10082 10075 10069 10062 10056 10051 10046 10041 10036 10031 10028 10024 10021 10019 10015 10011 10008 10004 10002 10001 10001 10000 9999 9999 10000 9999 9996 9995 9996 9997 9997 9997 9997 9998 9999
10581 10575 10568 10562 10553 10547 10540 10532 10521 10510 10499 10490 10481 10470 10462 10456 10449 10438 10427 10418 10403 10382 10362 10347 10338 10327 10313 10298 10288 10279 10268 10257 10246 10235 10225 10215 10206 10196 10186 10176 10166 10155 10146 10135 10126 10117 10108 10099 10090 10082 10076 10070 10063 10056 10050 10045 10039 10034 10030 10025 10020 10017 10013 10009 10006 10002 9999 9996 9992 9988 9987 9986 9986 9986 9987 9987 9987 9985 9984 9983 9983 9983 9984 9985 9985 9985
10581 10574 10566 10559 10550 10540 10533 10526 10518 10508 10496 10484 10474 10462 10448 10436 10427 10418 10408 10402 10396 10381 10359 10339 10325 10317 10307 10292 10278 10268 10257 10246 10236 10224 10213 10203 10192 10183 10173 10162 10151 10141 10130 10121 10112 10104 10096 10087 10078 10070 10063 10056 10050 10044 10038 10032 10027 10022 10017 10012 10008 10004 10000 9995 9992 9989 9985 9982 9976 9972 9971 9971 9971 9972 9973 9973 9973 9972 9971 9970 9970 9970 9971 9972 9972 9973
10575 10570 10562 10553 10544 10533 10524 10516 10508 10499 10490 10478 10466 10454 10440 10424 10412 10401 10390 10380 10377 10370 10353 10333 10315 10304 10297 10286 10272 10260 10249 10237 10226 10214 10202 10192 10180 10169 10159 10148 10138 10128 10118 10108 10100 10091 10083 10075 10066 10059 10052 10044 10038 10031 10026 10021 10015 10009 10004 9999 9994 9990 9986 9981 9977 9974 9970 9965 9960 9957 9957 9958 9958 9959 9959 9959 9959 9958 9958 9957 9957 9957 9958 9960 9961 9962
10568 10563 10556 10547 10538 10528 10518 10510 10501 10492 10483 10472 10461 10448 10435 10421 10408 10398 10388 10375 10365 10357 10344 10327 10311 10297 10286 10277 10264 10250 10240 10228 10216 10205 10193 10181 10169 10157 10147 10137 10127 10118 10109 10098 10089 10081 10072 10063 10054 10045 10037 10030 10024 10018 10012 10006 10000 9995 9990 9985 9980 9976 9972 9968 9964 9959 9954 9950 9947 9945 9945 9946 9946 9946 9946 9945 9945 9945 9945 9945 9945 9946 9947 9949 9950 9951
10567 10558 10552 10543 10535 10526 10515 10504 10494 10484 10475 10465 10454 10443 10432 10419 10403 10392 10385 10376 10364 10355 10340 10319 10304 10292 10277 10265 10255 10241 10229 10219 10206 10195 10184 10171 10160 10149 10139 10130 10120 10109 10099 10089 10078 10069 10060 10051 10041 10032 10023 10016 10009 10003 9998 9992 9986 9981 9975 9970 9966 9962 9958 9954 9949 9944 9941 9939 9937 9934 9934 9935 9934 9934 9933 9933 9933 9933 9933 9933 9934 9935 9937 9938 9939 9941
10568 10557 10550 10543 10534 10524 10513 10501 10488 10477 10467 10457 10447 10437 10428 10419 10403 10384 10369 10360 10352 10344 10334 10313 10291 10278 10266 10252 10242 10230 10216 10205 10193 10181 10171 10159 10149 10138 10128 10118 10108 10097 10085 10074 10063 10053 10044 10036 10028 10020 10013 10006 9999 9992 9985 9979 9974 9969 9963 9957 9953 9950 9946 9941 9936 9932 9930 9929 9928 9924 9924 9925 9925 9923 9922 9922 9922 9922 9923 9923 9924 9925 9926 9928 9929 9931
10569 10558 10549 10541 10531 10521 10510 10499 10488 10476 10465 10453 10441 10431 10420 10410 10398 10380 10356 10341 10331 10323 10318 10306 10284 10269 10258 10242 10227 10215 10202 10192 10182 10171 10160 10149 10138 10127 10118 10108 10099 10089 10078 10067 10056 10045 10035 10027 10019 10011 10004 9998 9991 9984 9976 9969 9963 9958 9953 9947 9942 9938 9934 9930 9926 9923 9920 9919 9918 9916 9915 9915 9915 9914 9913 9913 9913 9913 9913 9913 9914 9915 9916 9918 9919 9921
10566 10556 10546 10536 10527 10517 10507 10498 10487 10476 10464 10451 10439 10428 10417 10403 10391 10378 10357 10335 10321 10310 10301 10293 10276 10257 10244 10231 10216 10204 10193 10182 10173 10163 10152 10140 10130 10120 10109 10100 10091 10082 10073 10064 10054 10043 10032 10022 10013 10003 9995 9988 9981 9975 9968 9961 9955 9949 9943 9937 9932 9927 9923 9919 9917 9915 9912 9910 9908 9908 9907 9906 9906 9905 9904 9904 9904 9904 9904 9905 9905 9905 9906 9908 9910 9911
10564 10556 10545 10535 10526 10516 10505 10493 10481 10470 10460 10450 10438 10423 10411 10399 10388 10378 10364 10341 10321 10306 10291 10277 10264 10247 10233 10221 10209 10197 10184 10172 10162 10153 10142 10130 10120 10110 10099 10089 10080 10072 10063 10054 10044 10035 10024 10014 10004 9994 9985 9977 9970 9965 9959 9953 9947 9941 9934 9928 9923 9918 9914 9910 9908 9907 9905 9902 9901 9900 9899 9898 9897 9897 9896 9897 9896 9895 9896 9896 9896 9897 9897 9899 9901 9903
10563 10555 10545 10535 10525 10514 10502 10489 10478 10467 10455 10443 10432 10419 10405 10393 10379 10368 10360 10343 10321 10304 10289 10271 10253 10240 10227 10214 10201 10188 10175 10163 10152 10142 10132 10120 10108 10098 10087 10076 10066 10057 10049 10040 10032 10023 10013 10004 9995 9986 9977 9968 9961 9955 9950 9943 9937 9932 9925 9919 9914 9910 9907 9903 9900 9898 9897 9896 9894 9892 9891 9890 9890 9889 9889 9889 9888 9887 9887 9888 9888 9888 9889 9891 9893 9895
10560 10554 10546 10535 10524 10513 10503 10494 10482 10470 10456 10441 10428 10416 10402 10389 10374 10357 10345 10333 10315 10298 10288 10275 10254 10235 10222 10209 10196 10183 10170 10155 10141 10129 10119 10110 10099 10088 10078 10068 10058 10049 10039 10031 10022 10013 10003 9994 9984 9975 9967 9958 9951 9946 9940 9933 9927 9921 9915 9910 9906 9903 9899 9896 9894 9891 9890 9889 9887 9885 9884 9883 9882 9882 9882 9881 9881 9880 9879 9880 9880 9881 9882 9883 9885 9887
10554 10550 10547 10541 10532 10523 10512 10501 10488 10472 10457 10441 10425 10411 10399 10387 10374 10359 10343 10330 10313 10291 10277 10272 10258 10237 10219 10205 10191 10178 10164 10150 10136 10122 10111 10102 10094 10085 10075 10064 10053 10043 10032 10022 10013 10003 9993 9983 9973 9964 9955 9948 9941 9935 9929 9923 9917 9911 9906 9901 9898 9895 9892 9889 9887 9885 9884 9882 9880 9879 9877 9876 9876 9875 9875 9874 9873 9873 9872 9872 9873 9874 9875 9876 9877 9879
10547 10540 10536 10532 10527 10522 10513 10500 10487 10471 10454 10437 10421 10406 10395 10384 10372 10360 10347 10334 10320 10298 10275 10264 10256 10239 10219 10202 10187 10174 10163 10151 10138 10125 10111 10099 10088 10078 10067 10056 10045 10034 10023 10013 10003 9993 9983 9972 9963 9955 9946 9938 9932 9926 9920 9914 9908 9903 9898 9894 9891 9888 9885 9883 9880 9879 9878 9876 9874 9872 9871 9870 9869 9869 9868 9867 9867 9866 9866 9866 9866 9867 9868 9870 9871 9872
10545 10534 10526 10517 10507 10498 10489 10478 10468 10461 10451 10438 10423 10407 10392 10379 10367 10355 10343 10329 10319 10306 10282 10259 10248 10237 10220 10202 10188 10174 10162 10151 10140 10127 10113 10099 10084 10071 10058 10045 10034 10023 10012 10002 9992 9983 9973 9963 9953 9945 9938 9930 9923 9917 9911 9906 9900 9895 9891 9887 9885 9882 9879 9877 9875 9873 9871 9869 9867 9866 9864 9863 9863 9862 9862 9861 9860 9860 9860 9860 9860 9860 9861 9863 9864 9865
10546 10534 10523 10513 10502 10490 10482 10473 10462 10453 10445 10436 10426 10412 10395 10379 10363 10349 10336 10324 10312 10304 10289 10265 10244 10229 10213 10196 10182 10170 10157 10146 10134 10121 10107 10092 10077 10063 10049 10036 10023 10011 10001 9992 9983 9974 9965 9955 9946 9938 9931 9924 9916 9909 9904 9899 9894 9889 9884 9880 9878 9876 9873 9871 9869 9868 9866 9864 9862 9860 9859 9858 9857 9857 9856 9855 9855 9854 9854 9854 9854 9854 9855 9857 9858 9859
10548 10538 10526 10514 10504 10495 10486 10477 10465 10452 10441 10431 10421 10410 10395 10380 10367 10351 10337 10323 10306 10291 10279 10261 10239 10221 10205 10188 10172 10159 10148 10136 10123 10108 10092 10077 10064 10051 10039 10028 10017 10006 9996 9987 9977 9968 9959 9949 9941 9933 9926 9919 9910 9903 9897 9893 9889 9884 9879 9875 9871 9869 9867 9865 9863 9862 9860 9858 9857 9855 9854 9853 9852 9851 9851 9850 9850 9849 9848 9848 9848 9849 9850 9851 9852 9853
10550 10541 10530 10519 10508 10498 10487 10477 10468 10456 10443 10431 10418 10406 10392 10379 10368 10355 10339 10322 10301 10279 10261 10247 10230 10213 10197 10181 10165 10151 10138 10123 10109 10095 10082 10070 10059 10048 10037 10027 10016 10005 9994 9984 9974 9963 9953 9943 9934 9927 9921 9914 9906 9899 9893 9887 9883 9879 9875 9871 9867 9864 9861 9859 9857 9856 9854 9853 9851 9850 9849 9848 9847 9846 9846 9845 9845 9844 9844 9843 9843 9843 9844 9845 9847 9848
10550 10542 10533 10522 10511 10500 10489 10479 10469 10459 10448 10435 10420 10406 10395 10381 10368 10356 10340 10322 10303 10281 10259 10243 10227 10210 10193 10178 10161 10144 10129 10115 10103 10094 10084 10072 10061 10051 10038 10025 10013 10002 9990 9980 9969 9958 9947 9937 9929 9921 9915 9909 9902 9896 9889 9883 9878 9874 9870 9866 9862 9859 9856 9854 9852 9850 9849 9847 9846 9844 9843 9842 9842 9841 9841 9841 9840 9840 9839 9838 9838 9838 9838 9840 9841 9842
10550 10543 10534 10524 10514 10504 10494 10483 10471 10459 10447 10436 10425 10413 10401 10387 10369 10352 10332 10313 10296 10281 10263 10243 10227 10210 10193 10175 10156 10137 10124 10115 10106 10095 10084 10073 10059 10045 10033 10020 10007 9995 9984 9973 9963 9953 9942 9932 9923 9915 9908 9903 9897 9891 9885 9879 9873 9869 9865 9861 9857 9854 9852 9849 9847 9846 9844 9842 9841 9839 9838 9838 9837 9836 9836 9836 9836 9835 9835 9834 9834 9833 9833 9834 9836 9837
10548 10541 10533 10524 10514 10504 10494 10484 10474 10464 10452 10442 10432 10419 10403 10384 10361 10339 10320 10302 10285 10270 10256 10240 10224 10206 10189 10172 10155 10139 10124 10111 10100 10087 10075 10064 10051 10036 10023 10012 10000 9987 9976 9966 9955 9946 9937 9928 9919 9911 9904 9898 9893 9887 9882 9875 9870 9866 9862 9857 9854 9850 9848 9845 9843 9841 9840 9838 9837 9835 9834 9833 9833 9832 9832 9832 9831 9831 9830 9830 9830 9829 9829 9829 9830 9831
10544 10537 10531 10523 10514 10504 10493 10480 10469 10462 10455 10441 10424 10406 10391 10374 10353 10333 10318 10304 10286 10267 10250 10235 10219 10202 10186 10170 10154 10136 10116 10098 10084 10071 10058 10047 10039 10029 10016 10004 9993 9982 9970 9960 9950 9941 9932 9924 9915 9907 9900 9894 9890 9885 9879 9873 9867 9863 9859 9854 9850 9847 9844 9841 9839 9837 9835 9834 9833 9831 9830 9829 9828 9828 9828 9827 9827 9826 9826 9826 9826 9826 9825 9825 9826 9826
10541 10533 10525 10517 10509 10499 10490 10479 10469 10458 10444 10425 10407 10391 10376 10362 10349 10334 10318 10304 10291 10273 10252 10232 10216 10200 10184 10166 10147 10128 10111 10093 10077 10063 10050 10037 10027 10020 10011 9999 9988 9977 9967 9957 9947 9938 9929 9921 9912 9904 9896 9890 9885 9881 9875 9870 9865 9860 9856 9852 9848 9844 9841 9838 9835 9833 9831 9830 9828 9827 9827 9826 9825 9824 9824 9824 9823 9822 9822 9823 9823 9822 9822 9822 9822 9822
10538 10530 10521 10513 10504 10493 10482 10474 10462 10445 10428 10415 10405 10393 10377 10364 10354 10341 10323 10302 10284 10264 10244 10226 10212 10197 10181 10165 10149 10133 10116 10098 10079 10062 10050 10038 10025 10014 10006 9996 9984 9973 9963 9953 9944 9934 9925 9918 9910 9902 9895 9887 9882 9877 9872 9867 9862 9858 9854 9850 9846 9842 9839 9836 9833 9830 9828 9826 9824 9823 9823 9822 9821 9820 9820 9820 9820 9819 9819 9819 9819 9819 9818 9819 9819 9820
10535 10526 10518 10510 10501 10492 10481 10468 10452 10438 10430 10423 10412 10398 10384 10365 10344 10325 10309 10290 10266 10246 10234 10225 10212 10197 10182 10168 10154 10138 10120 10103 10087 10071 10055 10043 10029 10014 10000 9989 9979 9968 9957 9948 9939 9931 9922 9914 9907 9900 9893 9886 9880 9874 9869 9864 9860 9856 9852 9848 9844 9841 9837 9834 9830 9828 9825 9823 9821 9820 9819 9818 9818 9817 9816 9816 9817 9816 9816 9816 9815 9814 9815 9815 9816 9817
10530 10521 10513 10504 10495 10486 10477 10469 10459 10448 10437 10422 10405 10389 10373 10353 10331 10311 10292 10275 10259 10248 10240 10228 10212 10195 10179 10163 10151 10139 10124 10107 10092 10078 10063 10047 10032 10016 9999 9985 9974 9964 9953 9944 9934 9926 9917 9910 9903 9897 9891 9884 9877 9872 9867 9862 9858 9853 9850 9846 9843 9839 9836 9833 9829 9826 9823 9821 9819 9817 9816 9815 9814 9814 9813 9813 9813 9813 9813 9812 9811 9811 9811 9812 9813 9814
10526 10517 10507 10498 10490 10479 10469 10461 10454 10444 10429 10413 10395 10378 10362 10350 10340 10323 10300 10281 10273 10265 10249 10226 10205 10188 10171 10155 10140 10129 10121 10109 10093 10076 10060 10044 10028 10014 9999 9984 9970 9959 9950 9942 9934 9925 9916 9908 9901 9895 9889 9883 9876 9870 9865 9860 9856 9852 9848 9844 9841 9837 9834 9831 9828 9826 9823 9820 9818 9816 9814 9813 9812 9811 9810 9810 9810 9810 9809 9809 9809 9809 9809 9809 9810 9810
10523 10514 10504 10494 10485 10475 10462 10448 10437 10427 10419 10408 10394 10377 10360 10346 10334 10325 10317 10306 10289 10267 10242 10220 10200 10182 10166 10150 10133 10117 10105 10095 10082 10064 10047 10032 10018 10005 9994 9982 9971 9960 9950 9940 9932 9925 9917 9908 9901 9894 9888 9882 9876 9870 9865 9860 9855 9851 9846 9843 9839 9836 9833 9830 9827 9824 9822 9820 9817 9815 9813 9811 9810 9809 9808 9807 9807 9806 9806 9806 9806 9806 9806 9806 9806 9807
10522 10514 10505 10493 10482 10472 10462 10448 10434 10421 10410 10399 10389 10378 10364 10346 10330 10321 10315 10303 10279 10253 10232 10216 10199 10182 10165 10149 10132 10113 10093 10076 10062 10050 10037 10025 10014 10003 9992 9981 9971 9962 9952 9942 9932 9924 9916 9908 9900 9892 9886 9880 9874 9869 9864 9859 9855 9850 9846 9842 9838 9835 9832 9829 9826 9823 9821 9819 9817 9814 9812 9810 9808 9807 9805 9805 9804 9804 9804 9803 9803 9803 9803 9803 9804 9805
10523 10514 10504 10493 10483 10472 10462 10450 10438 10425 10410 10396 10385 10374 10364 10355 10342 10322 10298 10279 10263 10248 10232 10217 10202 10187 10168 10149 10132 10115 10096 10078 10063 10050 10039 10028 10019 10008 9995 9983 9971 9961 9951 9942 9933 9924 9916 9908 9901 9893 9886 9880 9874 9869 9864 9859 9855 9850 9846 9842 9838 9834 9831 9828 9825 9822 9820 9818 9815 9813 9811 9808 9806 9805 9804 9803 9803 9802 9802 9801 9801 9801 9802 9802 9803 9803
10522 10511 10501 10490 10480 10469 10460 10453 10443 10430 10415 10402 10389 10376 10364 10351 10335 10314 10292 10275 10263 10250 10236 10221 10205 10189 10172 10155 10137 10120 10105 10089 10074 10060 10047 10034 10022 10010 9998 9986 9975 9965 9954 9944 9935 9926 9917 9909 9901 9894 9887 9881 9874 9869 9864 9859 9854 9850 9846 9842 9838 9834 9831 9828 9825 9822 9819 9817 9814 9812 9810 9808 9806 9804 9803 9802 9802 9801 9801 9800 9800 9800 9800 9801 9801 9802
10516 10507 10497 10486 10476 10465 10454 10445 10433 10419 10407 10397 10384 10370 10355 10337 10320 10308 10297 10283 10267 10253 10240 10223 10205 10189 10174 10159 10142 10127 10112 10097 10082 10069 10054 10040 10025 10013 10001 9989 9978 9967 9958 9947 9937 9928 9919 9911 9903 9896 9888 9882 9875 9870 9865 9860 9855 9850 9846 9842 9838 9834 9831 9828 9825 9822 9819 9816 9814 9812 9810 9808 9806 9805 9803 9802 9801 9801 9801 9800 9800 9800 9800 9800 9800 9801
10511 10502 10492 10480 10468 10456 10444 10431 10420 10410 10400 10388 10374 10358 10343 10330 10318 10308 10298 10285 10270 10254 10238 10223 10208 10193 10177 10160 10145 10130 10115 10100 10085 10072 10057 10042 10028 10016 10004 9993 9981 9970 9960 9950 9940 9930 9921 9913 9905 9897 9890 9883 9877 9871 9866 9861 9856 9851 9847 9842 9838 9834 9831 9828 9825 9822 9819 9816 9814 9812 9810 9808 9806 9805 9803 9802 9801 9801 9800 9800 9800 9800 9800 9800 9800 9800
10507 10497 10488 10477 10463 10449 10436 10425 10415 10404 10391 10379 10368 10357 10346 10335 10324 10311 10298 10285 10271 10254 10238 10224 10210 10195 10178 10162 10147 10133 10118 10103 10088 10073 10059 10044 10031 10018 10006 9994 9983 9971 9961 9951 9942 9932 9923 9915 9907 9899 9892 9885 9879 9872 9867 9862 9857 9852 9848 9843 9839 9835 9832 9829 9826 9823 9820 9817 9814 9812 9810 9809 9807 9805 9804 9803 9802 9801 9801 9800 9800 9800 9800 9800 9800 9800
10507 10497 10487 10479 10469 10457 10443 10429 10417 10406 10394 10382 10371 10360 10349 10338 10326 10313 10299 10284 10270 10257 10244 10229 10212 10195 10179 10164 10150 10136 10122 10107 10091 10076 10062 10049 10036 10022 10010 9997 9985 9974 9963 9953 9943 9934 9926 9917 9909 9901 9894 9887 9880 9874 9868 9863 9858 9853 9848 9844 9840 9836 9833 9830 9827 9824 9821 9818 9816 9813 9812 9810 9808 9806 9805 9804 9803 9802 9801 9801 9800 9800 9800 9800 9799 9799
10510 10500 10489 10480 10471 10462 10452 10440 10428 10418 10408 10396 10383 10370 10357 10343 10329 10315 10301 10285 10271 10257 10243 10230 10217 10202 10186 10170 10155 10139 10123 10109 10095 10081 10067 10054 10041 10026 10013 10000 9989 9978 9967 9956 9946 9937 9928 9919 9911 9903 9895 9888 9881 9875 9869 9864 9858 9854 9849 9845 9841 9838 9835 9831 9828 9825 9822 9819 9817 9815 9813 9811 9809 9808 9806 9805 9804 9803 9802 9802 9801 9801 9800 9800 9799 9799
10510 10500 10491 10480 10470 10462 10453 10442 10429 10417 10406 10395 10384 10373 10362 10350 10338 10324 10309 10294 10278 10262 10245 10230 10218 10207 10194 10177 10159 10142 10126 10112 10098 10085 10071 10057 10043 10029 10016 10004 9993 9982 9970 9959 9949 9939 9930 9922 9914 9905 9897 9890 9883 9876 9871 9865 9860 9854 9850 9846 9843 9840 9836 9833 9830 9826 9823 9821 9819 9817 9815 9813 9811 9809 9808 9806 9805 9804 9803 9803 9802 9801 9801 9800 9800 9800
10509 10499 10491 10482 10474 10466 10458 10449 10438 10426 10414 10402 10391 10379 10367 10356 10343 10329 10314 10301 10288 10274 10259 10242 10224 10210 10197 10182 10165 10148 10133 10116 10101 10086 10072 10058 10045 10032 10019 10008 9996 9985 9974 9963 9952 9942 9933 9925 9916 9908 9900 9893 9886 9879 9873 9867 9861 9856 9852 9848 9845 9841 9838 9834 9831 9828 9825 9822 9820 9818 9816 9814 9813 9811 9809 9808 9806 9805 9804 9803 9802 9802 9801 9800 9800 9800
10508 10500 10492 10484 10476 10468 10459 10449 10438 10427 10415 10403 10392 10380 10367 10354 10341 10329 10317 10305 10292 10280 10267 10254 10238 10219 10202 10186 10170 10154 10138 10122 10106 10090 10073 10058 10046 10034 10023 10010 9998 9988 9977 9965 9955 9945 9935 9927 9919 9912 9904 9897 9889 9882 9875 9869 9864 9859 9854 9850 9846 9842 9839 9835 9832 9829 9827 9824 9822 9819 9817 9815 9814 9812 9810 9809 9807 9806 9805 9804 9803 9802 9801 9801 9800 9800
10507 10498 10490 10481 10472 10463 10453 10444 10434 10423 10412 10402 10390 10378 10365 10353 10342 10331 10319 10306 10293 10279 10267 10255 10242 10225 10206 10188 10172 10155 10139 10124 10110 10094 10078 10062 10049 10036 10025 10013 10001 9989 9979 9968 9957 9947 9937 9929 9921 9914 9907 9900 9893 9886 9879 9873 9867 9862 9856 9852 9847 9843 9840 9837 9834 9831 9828 9826 9823 9821 9819 9817 9815 9813 9811 9809 9808 9806 9805 9805 9804 9803 9802 9801 9801 9800